Content
SEND FEEDBACK

Daily
Averages
Monthly
Summary
United States of America

BROOKLYN, NEW YORK


Home > North America > United States > New York
Elevation: 2 feet     Latitude: 40 36N     Longitude: 073 59W

WEATHER
 
SELECT A DAY
Number of Records: 185,245;   Date Range: 1/1/95 - 7/20/14
 
SHARE

PRINT THIS DATA

[ ← Previous Day ]
WEATHER ALMANAC - MARCH 29, 2013
[ Next Day → ]
[ °C ]   °F
Weather ElementAverageHighLow
Temperature48 °F55 °F (2:51 pm)41 °F (6:51 am)
Dewpoint25.4 °F28 °F (8:51 am)21 °F (4:51 pm)
Humidity42.3 %57 % (6:51 am)29 % (4:51 pm)
Barometer30.11 in30.15 in (7:51 am)30.06 in (3:51 pm)
Wind Speed13 mph18.4 mph (2:51 pm)
Wind Gust25.3 mph (5:51 pm)
Weather ElementAverage
Visibility10 mi
Wind DirectionWNW (302.2 °)

Weather ElementTotal
Precipitation---
Heating Degree Days17 (Base 65)
Averaged from 23 records on March 29, 2013
WEATHER CONDITIONS BREAKOUT
WIND DIRECTION BREAKOUT
WEATHER BY HOUR - MARCH 29, 2013
[ °C ]   °F
Local TimeTemperatureDewpointHumidityBarometerVisibilityWind DirectionWind SpeedGust SpeedPrecipitationEventsConditions
1:51 AM44.1 °F27.0 °F51 %30.12 in10.0 miNW (320°)10.4 mphMostly Cloudy
2:51 AM43.0 °F27.0 °F53 %30.12 in10.0 miNW (320°)16.1 mphScattered Clouds
3:51 AM44.1 °F27.0 °F51 %30.12 in10.0 miNW (310°)9.2 mphMostly Cloudy
4:51 AM44.1 °F27.0 °F51 %30.12 in10.0 miNW (320°)12.7 mphMostly Cloudy
5:51 AM43.0 °F27.0 °F53 %30.13 in10.0 miNW (320°)11.5 mphScattered Clouds
6:51 AM41.0 °F27.0 °F57 %30.13 in10.0 miNW (320°)9.2 mphScattered Clouds
7:51 AM43.0 °F27.0 °F53 %30.15 in10.0 miNW (310°)11.5 mphPartly Cloudy
8:51 AM46.0 °F28.0 °F50 %30.14 in10.0 miNW (310°)13.8 mphPartly Cloudy
9:51 AM48.0 °F27.0 °F44 %30.15 in10.0 miWNW (290°)10.4 mphPartly Cloudy
10:51 AM51.1 °F26.1 °F38 %30.14 in10.0 miNW (310°)8.1 mphScattered Clouds
11:51 AM54.0 °F25.0 °F33 %30.13 in10.0 miWNW (290°)10.4 mph16.1 mphPartly Cloudy
12:51 PM54.0 °F23.0 °F30 %30.12 in10.0 miWest (270°)11.5 mph21.9 mphMostly Cloudy
1:51 PM54.0 °F25.0 °F33 %30.09 in10.0 miSW (230°)12.7 mphScattered Clouds
2:51 PM55.0 °F24.1 °F30 %30.07 in10.0 miWSW (240°)18.4 mphMostly Cloudy
3:51 PM52.0 °F25.0 °F35 %30.06 in10.0 miSW (230°)15.0 mphMostly Cloudy
4:51 PM53.1 °F21.0 °F29 %30.06 in10.0 miNW (310°)11.5 mphMostly Cloudy
5:51 PM52.0 °F25.0 °F35 %30.07 in10.0 miWNW (300°)17.3 mph25.3 mphMostly Cloudy
6:51 PM48.9 °F24.1 °F38 %30.08 in10.0 miNW (320°)18.4 mphScattered Clouds
7:51 PM48.0 °F21.9 °F36 %30.10 in10.0 miNW (320°)15.0 mph23.0 mphScattered Clouds
8:51 PM48.0 °F24.1 °F39 %30.12 in10.0 miNW (320°)15.0 mphPartly Cloudy
9:51 PM46.9 °F25.0 °F42 %30.14 in10.0 miNW (320°)15.0 mph21.9 mphPartly Cloudy
10:51 PM46.0 °F25.0 °F44 %30.14 in10.0 miNNW (340°)15.0 mphMostly Cloudy
11:51 PM45.0 °F26.1 °F48 %30.14 in10.0 miNNW (330°)11.5 mphMostly Cloudy
Hourly data recorded from KJFK, located miles away from Brooklyn, New York







STORIES FROM OUR PARTNERS